Weather observations for the past three days for
Stanton Airfield
Imperial (Metric)
Date Time (cdt) Wind (mph) Vis. (mi.) Weather Sky Cond. Temperature (ºF) Relative Humidity Wind Chill (°F) Heat Index (°F) Pressure Precipitation (in)
Air Dwpt 6 hour altimeter (in) sea level (mb) 1 hr 3 hr 6 hr
Max. Min.
18 16:15 SW 6 10.00 Partly Cloudy SCT055 SCT070 77 52.7 43% 78 30.2 0.0
18 15:55 SW 5 10.00 Partly Cloudy SCT070 77 52.7 43% 78 30.2 0.0
18 15:35 Calm 10.00 Partly Cloudy SCT070 76.6 52.9 44% 78 30.21 0.0
18 15:15 Calm 10.00 Partly Cloudy SCT065 75 51.8 44% 78 30.21 0.0
18 14:55 W 7 10.00 Mostly Cloudy BKN055 77 53.6 44% 78 30.21 0.0
18 14:35 Calm 10.00 Partly Cloudy SCT055 76.1 51.4 42% 78 30.21 0.0
18 14:15 Calm 10.00 Partly Cloudy SCT050 75.2 51.8 44% 78 30.21 0.0
18 13:55 W 3 10.00 Partly Cloudy SCT050 75.4 53.6 47% 78 30.22 0.0
18 13:35 W 5 10.00 Mostly Cloudy SCT050 BKN060 75.2 53.2 46% 78 30.22 0.0
18 13:15 Calm 10.00 Partly Cloudy SCT060 75.2 53.6 47% 78 30.22 0.0
18 12:55 W 3 10.00 Partly Cloudy SCT060 75.2 53.6 47% 78 30.23 0.0
18 12:35 SW 5 10.00 Partly Cloudy SCT060 73.4 53.6 50% 30.23 0.0
18 12:15 Calm 10.00 Partly Cloudy SCT050 73.9 50.5 44% 30.23 0.0
18 11:55 Calm 10.00 Overcast OVC050 71.6 51.8 50% 30.23 0.0
18 11:35 W 6 10.00 Mostly Cloudy BKN050 BKN055 73.4 53.6 50% 30.24 0.0
18 11:15 S 5 10.00 Fair CLR 72.7 52.5 49% 30.24 0.0
18 10:55 Calm 10.00 Fair CLR 72.1 52.7 51% 30.24 0.0
18 10:35 Calm 10.00 Fair CLR 72 54.5 54% 30.24 0.0
18 10:15 W 3 10.00 Fair CLR 71.4 54.3 55% 30.24 0.0
18 09:55 SW 6 10.00 Fair CLR 70.2 56.1 61% 30.24 0.0
18 09:35 W 3 10.00 Fair CLR 69.1 57.6 67% 30.24 0.0
18 09:15 Calm 10.00 Fair CLR 67.1 58.5 74% 30.24 0.0
18 08:55 Calm 10.00 Fair CLR 65.3 57.7 77% 30.25 0.0
18 08:35 Calm 10.00 Fair CLR 63.3 57.7 82% 30.25 0.0
18 08:15 Calm 10.00 Fair CLR 61.3 56.5 84% 30.24 0.0
18 07:55 Calm 10.00 Fair CLR 59 56.3 91% 30.25 0.0
18 07:35 Calm 10.00 Fair CLR 57.4 55.2 93% 30.24 0.0
18 07:15 Calm 10.00 Fair CLR 55.2 53.8 95% 30.24 0.0
18 06:55 Calm 10.00 Fair CLR 53.6 52.5 54.5 51.1 96% 30.24 0.0
18 06:35 Calm 10.00 Fair CLR 52 51.1 97% 30.24 0.0
18 06:15 Calm 10.00 Fair CLR 51.3 50.4 97% 30.24 0.0
18 05:55 Calm 10.00 Fair CLR 51.1 50.2 97% 30.24 0.0
18 05:35 Calm 10.00 Fair CLR 51.1 50.2 97% 30.24 0.0
18 05:15 Calm 10.00 Fair CLR 52.2 51.3 97% 30.23 0.0
18 04:56 Calm 10.00 Fair CLR 52 51.1 97% 30.23 0.0
18 04:35 Calm 10.00 Fair CLR 52 50.9 96% 30.23 0.0
18 03:58 Calm 10.00 Fair CLR 52.5 51.6 97% 30.22 0.0
18 03:56 Calm 10.00 Fair CLR 52.5 51.6 97% 30.22 0.0
17 22:15 Calm 10.00 Fair CLR 58.6 56.1 91% 30.18 0.0
17 21:55 Calm 10.00 Fair CLR 59.2 56.5 91% 30.18 0.0
17 21:35 Calm 10.00 Fair CLR 60.3 56.5 87% 30.17 0.0
17 21:15 Calm 10.00 Fair CLR 61 57.4 88% 30.16 0.0
17 20:55 Calm 10.00 Fair CLR 62.8 57.2 82% 30.16 0.0
17 20:35 Calm 10.00 Fair CLR 65.3 55.6 71% 30.16 0.0
17 20:15 Calm 10.00 Fair CLR 67.3 56.3 68% 30.16 0.0
17 19:55 Calm 10.00 Fair CLR 68.7 53.2 58% 30.16 0.0
17 19:35 NE 3 10.00 Fair CLR 70 53.4 56% 30.16 0.0
17 19:15 NE 3 10.00 Fair CLR 71.1 52.7 52% 30.16 0.0
17 18:55 NE 6 10.00 Fair CLR 71.6 52.7 74.1 70.5 51% 30.16 0.0
17 18:35 N 6 10.00 Partly Cloudy SCT050 72.5 51.8 48% 30.15 0.0
17 18:15 NE 9 10.00 Partly Cloudy SCT050 72.5 51.6 48% 30.15 0.0
17 17:55 NE 10 10.00 Partly Cloudy SCT050 73.2 52.9 49% 30.16 0.0
17 17:35 N 13 10.00 Mostly Cloudy BKN050 73.6 52.2 47% 30.15 0.0
17 17:15 NE 10 10.00 Mostly Cloudy BKN050 73.4 52.2 47% 30.15 0.0
17 16:55 N 9 10.00 Partly Cloudy SCT050 74.1 52.3 47% 30.15 0.0
17 16:35 N 7 10.00 Partly Cloudy SCT050 73.6 52 47% 30.15 0.0
17 16:15 N 7 10.00 Partly Cloudy SCT050 72.5 50.7 46% 30.15 0.0
17 15:55 N 10 G 16 10.00 Partly Cloudy SCT050 73.4 52 47% 30.15 0.0
17 15:35 N 12 10.00 Partly Cloudy SCT050 71.8 50.4 47% 30.16 0.0
17 15:15 NW 10 10.00 Partly Cloudy SCT050 73.4 51.8 47% 30.16 0.0
17 14:55 N 9 10.00 Partly Cloudy SCT050 73.6 52.5 48% 30.16 0.0
17 14:35 NW 10 10.00 Partly Cloudy SCT050 72.3 50.7 47% 30.15 0.0
17 14:15 N 9 G 20 10.00 Partly Cloudy SCT050 73.4 52.7 48% 30.15 0.0
17 13:55 N 10 G 16 10.00 Partly Cloudy SCT050 72.7 51.8 48% 30.14 0.0
17 13:35 N 7 10.00 Mostly Cloudy SCT048 BKN050 71.4 51.3 49% 30.14 0.0
17 13:15 N 8 G 16 10.00 Partly Cloudy SCT048 71.4 52.5 51% 30.14 0.0
17 12:55 NW 14 10.00 Fair CLR 71.6 51.8 50% 30.14 0.0
17 12:35 N 14 G 20 10.00 Partly Cloudy SCT045 70.2 50.7 50% 30.14 0.0
17 12:15 NW 9 G 17 10.00 Partly Cloudy SCT045 70.2 51.3 51% 30.14 0.0
17 11:55 N 14 G 20 10.00 Partly Cloudy SCT043 70.3 51.6 52% 30.14 0.0
17 11:35 NW 10 G 18 10.00 Partly Cloudy SCT043 70 52.2 53% 30.14 0.0
17 11:15 N 14 G 22 10.00 Partly Cloudy SCT037 68 51.8 56% 30.14 0.0
17 10:55 N 9 10.00 Partly Cloudy SCT037 68.9 52.7 56% 30.14 0.0
17 10:35 N 9 10.00 Partly Cloudy SCT032 68.4 53.1 58% 30.14 0.0
17 10:15 N 9 10.00 Partly Cloudy SCT032 SCT038 67.6 54 62% 30.13 0.0
17 09:56 N 12 10.00 Partly Cloudy SCT028 SCT038 66.2 55.4 68% 30.13 0.0
17 09:35 N 9 10.00 Fair CLR 66.6 55.2 67% 30.13 0.0
17 09:15 N 8 10.00 Fair CLR 66.2 55.4 68% 30.13 0.0
17 08:55 NW 9 10.00 Fair CLR 64.4 55.4 73% 30.13 0.0
17 08:36 N 7 10.00 Fair CLR 64.4 55.4 73% 30.12 0.0
17 08:15 N 7 10.00 Fair CLR 62.6 55.4 77% 30.12 0.0
17 07:55 N 5 10.00 Fair CLR 62.4 55.4 78% 30.11 0.0
17 07:35 Calm 10.00 Fair CLR 61.7 55.9 82% 30.11 0.0
17 07:15 N 3 10.00 Fair CLR 60.6 55 82% 30.09 0.0
17 06:55 Calm 10.00 Fair CLR 59.2 56.5 61.9 56.1 91% 30.08 0.0
17 06:35 Calm 10.00 Fair CLR 58.3 55.4 90% 30.07 0.0
17 06:15 Calm 10.00 Partly Cloudy SCT046 SCT050 57.6 55.2 92% 30.06 0.0
17 05:55 Calm 10.00 Mostly Cloudy BKN048 58.1 55.4 91% 30.05 0.0
17 05:35 Calm 10.00 Partly Cloudy SCT050 57.2 54.3 90% 30.04 0.0
17 05:15 NW 3 10.00 Fair CLR 57.9 54.7 89% 30.04 0.0
17 04:55 Calm 10.00 Fair CLR 56.1 54.3 94% 30.03 0.0
17 04:35 Calm 10.00 Fair CLR 57.6 55.2 92% 30.02 0.0
17 04:15 Calm 10.00 Fair CLR 56.7 55.2 95% 30.01 0.0
17 03:55 Calm 10.00 Fair CLR 56.7 55.6 96% 30.01 0.0
17 03:35 Calm 10.00 Fair CLR 58.1 56.7 95% 30.01 0.0
17 03:15 Calm 10.00 Fair CLR 57.4 56.1 96% 30.01 0.0
17 02:55 Calm 10.00 Fair CLR 58.3 57.2 96% 30.01 0.0
17 02:35 Calm 10.00 Fair CLR 58.3 57 96% 30 0.0
17 02:15 Calm 10.00 Fair CLR 59 57.6 95% 30 0.0
17 01:55 Calm 10.00 Fair CLR 59.5 57.2 92% 29.99 0.0
17 01:35 Calm 10.00 Fair CLR 59.5 57.7 94% 29.99 0.0
17 01:15 Calm 10.00 Fair CLR 60.3 57.9 92% 29.99 0.0
17 00:55 Calm 10.00 Fair CLR 61.9 58.8 76.3 61.9 90% 29.99 0.0
17 00:35 Calm 10.00 Fair CLR 62.2 58.6 88% 29.98 0.0
17 00:15 NW 5 10.00 Fair CLR 63.5 59 85% 29.98 0.0
16 23:55 NW 5 10.00 Fair CLR 64 58.6 83% 29.98 0.0
16 23:35 NW 6 10.00 Fair CLR 64.8 58.6 81% 29.97 0.0
16 23:15 NW 6 10.00 Fair CLR 65.3 59 80% 29.96 0.0
16 22:55 NW 6 10.00 Fair CLR 64.4 59 83% 29.96 0.0
16 22:35 SW 3 10.00 Fair CLR 65.7 59 79% 29.96 0.0
16 22:15 SW 3 10.00 Fair CLR 66.2 59 78% 29.96 0.0
16 21:55 Calm 10.00 Fair CLR 66.6 58.8 76% 29.95 0.0
16 21:35 SW 6 10.00 Fair CLR 68.4 58.3 70% 29.95 0.0
16 21:15 W 3 10.00 Fair CLR 68 59 73% 29.94 0.0
16 20:55 W 5 10.00 Fair CLR 70 57.9 66% 29.93 0.0
16 20:35 W 5 10.00 Fair CLR 70.7 58.3 65% 29.93 0.0
16 20:15 W 3 10.00 Fair CLR 72 58.3 62% 29.92 0.0
16 19:55 W 5 10.00 Fair CLR 73.8 57.6 57% 29.92 0.0
16 19:35 W 6 10.00 Fair CLR 74.8 58.1 56% 29.91 0.0
16 19:15 W 6 10.00 Fair CLR 75.9 57.7 53% 78 29.92 0.0
16 18:55 W 6 10.00 Fair CLR 76.3 58.3 79.2 74.3 54% 78 29.92 0.0
16 18:35 W 6 10.00 Fair CLR 75.2 58.5 56% 78 29.92 0.0
16 18:15 NW 8 10.00 Fair CLR 76.8 56.7 50% 78 29.93 0.0
16 17:55 W 9 10.00 Fair CLR 77.9 58.6 52% 79 29.93 0.0
16 17:35 NW 9 10.00 Fair CLR 77.9 58.5 51% 79 29.93 0.0
16 17:15 NW 10 10.00 Partly Cloudy SCT055 77.9 57.4 49% 79 29.93 0.0
16 16:55 NW 13 10.00 Partly Cloudy SCT055 78.1 57.6 49% 79 29.93 0.0
16 16:35 W 9 10.00 Fair CLR 77.7 56.1 47% 79 29.93 0.0
16 16:15 NW 10 10.00 Fair CLR 79.2 56.8 46% 80 29.93 0.0
16 15:55 NW 14 10.00 Fair CLR 78.8 55.8 45% 80 29.92 0.0
16 15:35 NW 13 10.00 Partly Cloudy SCT055 SCT065 78.4 57.6 49% 79 29.92 0.0
16 15:15 NW 13 10.00 Partly Cloudy SCT060 SCT075 78.6 58.3 50% 80 29.91 0.0
16 14:55 NW 12 G 16 10.00 Partly Cloudy SCT060 SCT070 78.1 57.7 50% 79 29.91 0.0
16 14:35 NW 8 10.00 Partly Cloudy SCT049 SCT060 SCT070 78.3 59.2 52% 80 29.9 0.0
16 14:15 NW 9 10.00 Partly Cloudy SCT049 SCT060 77 59 54% 79 29.89 0.0
16 13:55 NW 9 10.00 Partly Cloudy SCT049 SCT070 77 59 54% 79 29.9 0.0
16 13:35 NW 9 10.00 Partly Cloudy SCT047 SCT055 78.3 59.4 52% 80 29.91 0.0
16 13:15 NW 7 10.00 Partly Cloudy SCT047 77.7 58.5 52% 79 29.91 0.0
16 12:55 NW 10 G 16 10.00 Partly Cloudy SCT047 77.2 58.8 77.4 64.2 53% 79 29.91 0.0
16 12:35 NW 13 G 16 10.00 Partly Cloudy SCT048 76.8 58.6 54% 79 29.91 0.0
16 12:15 N 5 10.00 Partly Cloudy SCT042 76.8 58.3 53% 79 29.91 0.0
16 11:55 NW 9 10.00 Partly Cloudy SCT042 76.5 59.7 56% 78 29.91 0.0
16 11:35 NW 8 10.00 Fair CLR 75.4 58.8 57% 78 29.91 0.0
16 11:15 N 8 10.00 Fair CLR 74.7 58.3 57% 29.91 0.0
16 10:55 N 5 10.00 Fair CLR 75 60.4 61% 77 29.9 0.0
16 10:35 N 6 10.00 Fair CLR 73.8 60.3 63% 29.9 0.0
16 10:15 N 8 10.00 Fair CLR 72.9 59.5 63% 29.9 0.0
16 09:55 N 8 10.00 Fair CLR 72.5 61 67% 29.89 0.0
16 09:35 NW 8 10.00 Fair CLR 71.8 61.3 70% 29.89 0.0
16 08:55 N 5 10.00 Fair CLR 70.2 61.7 75% 29.88 0.0
16 08:35 N 6 10.00 Fair CLR 69.4 61.7 77% 29.88 0.0
16 08:15 NW 5 10.00 Fair CLR 68.2 61.9 80% 29.87 0.0
16 07:55 NW 7 10.00 Fair CLR 67.3 61.5 82% 29.87 0.0
16 07:15 NW 3 10.00 Fair CLR 65.1 61.9 89% 29.86 0.0
16 06:55 Calm 10.00 Fair CLR 63.9 61.7 70.2 62.1 93% 29.86 0.0
16 06:35 Calm 10.00 Fair CLR 63 61 93% 29.85 0.0
16 06:15 Calm 10.00 Fair CLR 62.2 60.3 93% 29.84 0.0
16 05:55 Calm 10.00 Fair CLR 62.6 60.4 93% 29.84 0.0
16 05:35 Calm 10.00 Fair CLR 62.4 60.8 94% 29.83 0.0
16 05:15 Calm 10.00 Fair CLR 62.6 61 94% 29.83 0.0
16 04:55 Calm 10.00 Fair CLR 62.6 61 94% 29.82 0.0
16 04:35 Calm 10.00 Fair CLR 63.7 61.7 93% 29.82 0.0
16 04:15 NW 3 10.00 Fair CLR 63.9 61.9 93% 29.81 0.0
16 03:55 NW 3 10.00 Fair CLR 64.6 62.2 92% 29.82 0.0
16 03:35 W 5 10.00 Fair CLR 65.3 62.8 92% 29.82 0.0
16 03:15 W 3 10.00 Fair CLR 65.8 63.1 91% 29.82 0.0
16 02:55 W 3 10.00 Fair CLR 66.2 63.1 90% 29.82 0.0
16 02:35 NW 5 10.00 Partly Cloudy SCT050 67.1 63.9 89% 29.81 0.0
16 02:15 W 3 10.00 Overcast OVC060 68.2 64.9 89% 29.81 0.0
16 01:55 Calm 10.00 Mostly Cloudy BKN060 68.4 65.3 90% 29.81 0.0
16 01:35 Calm 10.00 Partly Cloudy SCT060 68.4 64.8 88% 29.8 0.0
16 01:15 Calm 10.00 Partly Cloudy SCT060 69.3 65.5 88% 29.81 0.0
16 00:55 Calm 10.00 Fair CLR 70.2 66 82.4 70.2 87% 29.81 0.0
16 00:35 Calm 10.00 Partly Cloudy SCT060 70.7 66.6 87% 29.81 0.0
16 00:15 W 5 10.00 Mostly Cloudy SCT041 BKN050 BKN060 71.6 66.4 84% 29.8 0.0
15 23:55 NW 6 10.00 Overcast BKN039 BKN045 OVC050 73.4 66 78% 29.79 0.0
15 23:35 NW 8 10.00 Mostly Cloudy SCT037 BKN050 73 66 79% 29.78 0.0
15 23:15 NW 5 10.00 Mostly Cloudy SCT044 BKN050 72.7 67.5 84% 29.78 0.0
15 22:55 NW 6 10.00 Mostly Cloudy BKN042 BKN050 73.4 67.6 82% 29.77 0.0
15 22:35 NW 8 10.00 Mostly Cloudy BKN039 BKN046 BKN060 74.7 67.5 78% 29.76 0.0
15 22:15 NW 6 10.00 Partly Cloudy SCT037 SCT044 74.5 68 80% 29.75 0.0
15 21:55 NW 7 10.00 Fair CLR 74.5 68.5 82% 29.74 0.0
15 21:35 W 8 10.00 Fair CLR 75.2 69.3 82% 76 29.75 0.0
15 21:15 W 6 10.00 Fair CLR 75.7 69.8 82% 76 29.75 0.0
15 20:55 W 3 10.00 Partly Cloudy SCT042 SCT055 77 69.8 79% 79 29.74 0.0
15 20:35 W 5 10.00 Partly Cloudy SCT042 SCT055 77.2 69.8 78% 79 29.72 0.0
15 20:15 W 6 10.00 Fair CLR 78.8 70 74% 81 29.72 0.0
15 19:55 W 8 10.00 Fair CLR 79.5 71.1 75% 83 29.7 0.0
15 19:35 NW 7 10.00 Fair CLR 80.6 70.9 72% 84 29.68 0.0
15 19:15 NW 10 10.00 Fair CLR 81.5 70 68% 85 29.69 0.0
15 18:55 NW 9 10.00 Fair CLR 82.6 70.3 67% 87 29.7 0.0
15 18:35 NW 10 10.00 Fair CLR 82.9 70.9 67% 87 29.7 0.0
15 18:15 NW 9 G 18 10.00 Partly Cloudy SCT028 SCT034 SCT041 83.3 72.9 71% 89 29.69 0.0
15 17:55 NW 16 G 20 10.00 Partly Cloudy SCT028 SCT039 SCT050 83.1 73 72% 89 29.68 0.0
15 17:35 NW 12 10.00 Partly Cloudy SCT028 SCT039 SCT048 83.5 73.4 72% 90 29.68 0.0
15 17:17 W 13 10.00 Mostly Cloudy SCT021 SCT027 BKN048 84.2 75.2 74% 92 29.68 0.0
15 16:55 W 6 10.00 Partly Cloudy SCT038 SCT049 84.2 75.2 74% 92 29.71 0.0
15 16:35 W 5 10.00 Fair CLR 82.2 75 79% 89 29.73 0.0
Date Time (cdt) Wind (mph) Vis. (mi.) Weather Sky Cond. Air Dwpt Max. Min. Relative Humidity Wind Chill (°F) Heat Index (°F) altimeter (in) sea level (mb) 1 hr 3 hr 6 hr
6 hour
Temperature (ºF) Pressure Precipitation (in)